Time,TemperatureF,DewpointF,PressureIn,WindDirection,WindDirectionDegrees,WindSpeedMPH,WindSpeedGustMPH,Humidity,HourlyPrecipIn,Conditions,Clouds,dailyrainin,SoftwareType,DateUTC
2013-03-26 00:00:00,36.1,34.0,29.57,NW,324,6.0,10.0,92,0.01,,,0.08,meteohub,2013-03-26 04:00:00,
2013-03-26 00:05:00,36.3,34.2,29.57,NW,312,2.0,10.0,92,0.00,,,0.08,meteohub,2013-03-26 04:05:00,
2013-03-26 00:10:00,36.3,34.2,29.57,NW,312,8.0,13.0,92,0.00,,,0.08,meteohub,2013-03-26 04:10:00,
2013-03-26 00:15:00,36.3,34.0,29.57,NW,308,11.0,13.0,91,0.00,,,0.08,meteohub,2013-03-26 04:15:00,
2013-03-26 00:20:00,36.5,33.8,29.57,NNW,331,9.0,13.0,90,0.00,,,0.08,meteohub,2013-03-26 04:20:00,
2013-03-26 00:25:00,36.7,33.8,29.57,NW,326,6.0,13.0,89,0.00,,,0.00,meteohub,2013-03-26 04:25:00,
2013-03-26 00:30:00,36.9,33.6,29.57,NW,322,8.0,13.0,88,0.00,,,0.00,meteohub,2013-03-26 04:30:00,
2013-03-26 00:35:00,37.0,33.3,29.58,NNW,340,12.0,13.0,86,0.00,,,0.00,meteohub,2013-03-26 04:35:00,
2013-03-26 00:40:00,37.4,33.1,29.58,NNW,337,15.0,15.0,84,0.00,,,0.00,meteohub,2013-03-26 04:40:00,
2013-03-26 00:45:00,37.8,33.4,29.58,NNW,335,5.0,13.0,84,0.00,,,0.00,meteohub,2013-03-26 04:45:00,
2013-03-26 00:50:00,37.8,33.1,29.58,NNW,335,9.0,13.0,83,0.00,,,0.00,meteohub,2013-03-26 04:50:00,
2013-03-26 00:55:00,37.8,33.1,29.58,NW,321,18.0,18.0,83,0.00,,,0.00,meteohub,2013-03-26 04:55:00,
2013-03-26 01:00:00,37.8,33.1,29.59,NNW,346,14.0,14.0,83,0.00,,,0.00,meteohub,2013-03-26 05:00:00,
2013-03-26 01:05:00,37.9,33.3,29.59,North,350,15.0,18.0,83,0.00,,,0.00,meteohub,2013-03-26 05:05:00,
2013-03-26 01:10:00,37.8,33.4,29.59,North,0,13.0,18.0,84,0.00,,,0.00,meteohub,2013-03-26 05:10:00,
2013-03-26 01:15:00,37.6,33.4,29.59,NNE,28,14.0,18.0,85,0.00,,,0.00,meteohub,2013-03-26 05:15:00,
2013-03-26 01:20:00,37.6,33.4,29.60,North,355,10.0,18.0,85,0.00,,,0.00,meteohub,2013-03-26 05:20:00,
2013-03-26 01:25:00,37.4,33.3,29.60,NNW,347,7.0,18.0,85,0.00,,,0.00,meteohub,2013-03-26 05:25:00,
2013-03-26 01:30:00,37.4,33.6,29.60,North,350,6.0,18.0,86,0.00,,,0.00,meteohub,2013-03-26 05:30:00,
2013-03-26 01:35:00,37.2,33.4,29.60,North,350,4.0,13.0,86,0.00,,,0.00,meteohub,2013-03-26 05:35:00,
2013-03-26 01:40:00,37.2,33.4,29.60,North,350,3.0,13.0,86,0.00,,,0.00,meteohub,2013-03-26 05:40:00,
2013-03-26 01:45:00,37.0,33.3,29.60,North,350,2.0,13.0,86,0.00,,,0.00,meteohub,2013-03-26 05:45:00,
2013-03-26 01:50:00,36.9,33.1,29.60,North,350,1.0,13.0,86,0.00,,,0.00,meteohub,2013-03-26 05:50:00,
2013-03-26 01:56:00,36.9,33.1,29.60,North,350,1.0,13.0,86,0.00,,,0.00,meteohub,2013-03-26 05:56:00,
2013-03-26 02:01:00,36.7,32.9,29.60,North,350,2.0,4.0,86,0.00,,,0.00,meteohub,2013-03-26 06:01:00,
2013-03-26 02:06:00,36.5,33.1,29.60,North,350,2.0,4.0,87,0.00,,,0.00,meteohub,2013-03-26 06:06:00,
2013-03-26 02:11:00,36.3,32.9,29.60,North,350,4.0,4.0,87,0.00,,,0.00,meteohub,2013-03-26 06:11:00,
2013-03-26 02:16:00,36.1,32.7,29.60,North,350,3.0,4.0,87,0.00,,,0.00,meteohub,2013-03-26 06:16:00,
2013-03-26 02:21:00,36.0,32.5,29.60,North,350,4.0,5.0,87,0.00,,,0.00,meteohub,2013-03-26 06:21:00,
2013-03-26 02:27:00,35.8,32.4,29.61,NNW,347,5.0,5.0,87,0.00,,,0.00,meteohub,2013-03-26 06:27:00,
2013-03-26 02:32:00,35.8,32.4,29.61,NNW,346,5.0,5.0,87,0.00,,,0.00,meteohub,2013-03-26 06:32:00,
2013-03-26 02:37:00,35.8,32.4,29.61,NNW,345,5.0,5.0,87,0.00,,,0.00,meteohub,2013-03-26 06:37:00,
2013-03-26 02:42:00,35.8,32.4,29.61,NNW,345,4.0,7.0,87,0.00,,,0.00,meteohub,2013-03-26 06:42:00,
2013-03-26 02:47:00,35.8,32.0,29.61,NNW,342,6.0,7.0,86,0.00,,,0.00,meteohub,2013-03-26 06:47:00,
2013-03-26 02:52:00,36.0,31.8,29.61,NNW,342,3.0,7.0,85,0.00,,,0.00,meteohub,2013-03-26 06:52:00,
2013-03-26 02:57:00,36.0,31.8,29.61,NNW,340,5.0,7.0,85,0.00,,,0.00,meteohub,2013-03-26 06:57:00,
2013-03-26 03:02:00,36.0,31.8,29.61,NNW,340,5.0,8.0,85,0.00,,,0.00,meteohub,2013-03-26 07:02:00,
2013-03-26 03:07:00,35.8,31.6,29.61,NNW,340,3.0,8.0,85,0.00,,,0.00,meteohub,2013-03-26 07:07:00,
2013-03-26 03:12:00,35.8,31.6,29.61,NNW,340,3.0,8.0,85,0.00,,,0.00,meteohub,2013-03-26 07:12:00,
2013-03-26 03:17:00,35.8,31.5,29.61,NNW,340,3.0,7.0,84,0.00,,,0.00,meteohub,2013-03-26 07:17:00,
2013-03-26 03:22:00,36.0,31.6,29.61,NNW,332,6.0,7.0,84,0.00,,,0.00,meteohub,2013-03-26 07:22:00,
2013-03-26 03:27:00,36.0,31.6,29.62,NNW,332,6.0,7.0,84,0.00,,,0.00,meteohub,2013-03-26 07:27:00,
2013-03-26 03:32:00,36.0,31.3,29.62,NNW,331,5.0,7.0,83,0.00,,,0.00,meteohub,2013-03-26 07:32:00,
2013-03-26 03:37:00,36.1,31.5,29.62,NNW,331,5.0,7.0,83,0.00,,,0.00,meteohub,2013-03-26 07:37:00,
2013-03-26 03:42:00,36.3,31.6,29.62,NNW,331,4.0,8.0,83,0.00,,,0.00,meteohub,2013-03-26 07:42:00,
2013-03-26 03:47:00,36.3,31.3,29.62,NNW,331,4.0,8.0,82,0.00,,,0.00,meteohub,2013-03-26 07:47:00,
2013-03-26 03:52:00,36.3,31.3,29.62,NNW,330,5.0,8.0,82,0.00,,,0.00,meteohub,2013-03-26 07:52:00,
2013-03-26 03:57:00,36.3,31.3,29.62,NNW,327,7.0,8.0,82,0.00,,,0.00,meteohub,2013-03-26 07:57:00,
2013-03-26 04:02:00,36.5,31.3,29.63,NW,324,6.0,9.0,81,0.00,,,0.00,meteohub,2013-03-26 08:02:00,
2013-03-26 04:07:00,36.5,30.9,29.63,NW,324,4.0,9.0,80,0.00,,,0.00,meteohub,2013-03-26 08:07:00,
2013-03-26 04:12:00,36.3,31.1,29.63,NW,324,3.0,9.0,81,0.00,,,0.00,meteohub,2013-03-26 08:12:00,
2013-03-26 04:17:00,36.1,30.9,29.63,NW,324,3.0,9.0,81,0.00,,,0.00,meteohub,2013-03-26 08:17:00,
2013-03-26 04:22:00,36.1,30.9,29.63,NW,324,3.0,9.0,81,0.00,,,0.00,meteohub,2013-03-26 08:22:00,
2013-03-26 04:28:00,36.0,30.7,29.64,NW,324,4.0,7.0,81,0.00,,,0.00,meteohub,2013-03-26 08:28:00,
2013-03-26 04:33:00,35.8,30.6,29.64,NW,324,5.0,7.0,81,0.00,,,0.00,meteohub,2013-03-26 08:33:00,
2013-03-26 04:38:00,35.8,30.6,29.64,NW,324,4.0,7.0,81,0.00,,,0.00,meteohub,2013-03-26 08:38:00,
2013-03-26 04:43:00,35.8,30.6,29.64,NW,324,4.0,7.0,81,0.00,,,0.00,meteohub,2013-03-26 08:43:00,
2013-03-26 04:48:00,35.8,30.6,29.64,NW,324,4.0,6.0,81,0.00,,,0.00,meteohub,2013-03-26 08:48:00,
2013-03-26 04:53:00,35.4,30.6,29.65,NW,324,3.0,6.0,82,0.00,,,0.00,meteohub,2013-03-26 08:53:00,
2013-03-26 04:58:00,35.2,30.4,29.65,NW,324,4.0,6.0,82,0.00,,,0.00,meteohub,2013-03-26 08:58:00,
2013-03-26 05:03:00,35.2,30.6,29.65,NW,324,5.0,6.0,83,0.00,,,0.00,meteohub,2013-03-26 09:03:00,
2013-03-26 05:08:00,35.2,30.6,29.65,NW,324,5.0,6.0,83,0.00,,,0.00,meteohub,2013-03-26 09:08:00,
2013-03-26 05:13:00,35.2,30.6,29.65,NW,324,5.0,6.0,83,0.00,,,0.00,meteohub,2013-03-26 09:13:00,
2013-03-26 05:18:00,35.4,30.7,29.66,NW,324,5.0,6.0,83,0.00,,,0.00,meteohub,2013-03-26 09:18:00,
2013-03-26 05:23:00,35.4,30.7,29.66,NW,324,6.0,7.0,83,0.00,,,0.00,meteohub,2013-03-26 09:23:00,
2013-03-26 05:28:00,35.4,30.7,29.66,NW,324,4.0,7.0,83,0.00,,,0.00,meteohub,2013-03-26 09:28:00,
2013-03-26 05:33:00,35.4,30.7,29.66,NW,324,4.0,7.0,83,0.00,,,0.00,meteohub,2013-03-26 09:33:00,
2013-03-26 05:38:00,35.4,30.7,29.67,NW,324,4.0,7.0,83,0.00,,,0.00,meteohub,2013-03-26 09:38:00,
2013-03-26 05:43:00,35.4,30.7,29.66,NW,324,4.0,7.0,83,0.00,,,0.00,meteohub,2013-03-26 09:43:00,
2013-03-26 05:48:00,35.4,30.7,29.67,NW,324,3.0,7.0,83,0.00,,,0.00,meteohub,2013-03-26 09:48:00,
2013-03-26 05:53:00,35.8,31.5,29.67,NW,324,3.0,6.0,84,0.00,,,0.00,meteohub,2013-03-26 09:53:00,
2013-03-26 05:58:00,36.0,31.6,29.67,NW,324,4.0,6.0,84,0.00,,,0.00,meteohub,2013-03-26 09:58:00,
2013-03-26 06:03:00,36.0,31.3,29.68,NW,324,3.0,6.0,83,0.00,,,0.00,meteohub,2013-03-26 10:03:00,
2013-03-26 06:08:00,36.0,31.3,29.68,NW,324,3.0,6.0,83,0.00,,,0.00,meteohub,2013-03-26 10:08:00,
2013-03-26 06:13:00,36.1,31.5,29.68,NW,324,4.0,6.0,83,0.00,,,0.00,meteohub,2013-03-26 10:13:00,
2013-03-26 06:18:00,36.3,31.6,29.68,NW,324,5.0,6.0,83,0.00,,,0.00,meteohub,2013-03-26 10:18:00,
2013-03-26 06:23:00,36.3,31.3,29.68,NW,324,5.0,6.0,82,0.00,,,0.00,meteohub,2013-03-26 10:23:00,
2013-03-26 06:28:00,36.3,31.6,29.68,NW,324,3.0,6.0,83,0.00,,,0.00,meteohub,2013-03-26 10:28:00,
2013-03-26 06:33:00,36.5,31.8,29.68,NW,324,7.0,7.0,83,0.00,,,0.00,meteohub,2013-03-26 10:33:00,
2013-03-26 06:38:00,36.7,32.0,29.69,NW,324,5.0,7.0,83,0.00,,,0.00,meteohub,2013-03-26 10:38:00,
2013-03-26 06:44:00,36.7,31.6,29.69,NW,324,5.0,7.0,82,0.00,,,0.00,meteohub,2013-03-26 10:44:00,
2013-03-26 06:48:00,36.9,31.8,29.69,NW,324,6.0,7.0,82,0.00,,,0.00,meteohub,2013-03-26 10:48:00,
2013-03-26 06:54:00,36.9,31.8,29.70,NW,324,4.0,7.0,82,0.00,,,0.00,meteohub,2013-03-26 10:54:00,
2013-03-26 06:59:00,36.9,31.8,29.70,NW,324,5.0,7.0,82,0.00,,,0.00,meteohub,2013-03-26 10:59:00,
2013-03-26 07:04:00,36.9,31.8,29.70,NW,324,4.0,7.0,82,0.00,,,0.00,meteohub,2013-03-26 11:04:00,
2013-03-26 07:09:00,36.9,31.8,29.70,NW,324,4.0,7.0,82,0.00,,,0.00,meteohub,2013-03-26 11:09:00,
2013-03-26 07:14:00,36.9,31.8,29.70,NW,324,5.0,7.0,82,0.00,,,0.00,meteohub,2013-03-26 11:14:00,
2013-03-26 07:19:00,36.9,32.2,29.70,NW,324,4.0,7.0,83,0.00,,,0.00,meteohub,2013-03-26 11:19:00,
2013-03-26 07:24:00,36.9,31.8,29.71,NW,324,4.0,7.0,82,0.00,,,0.00,meteohub,2013-03-26 11:24:00,
2013-03-26 07:29:00,36.9,31.8,29.71,NW,324,3.0,7.0,82,0.00,,,0.00,meteohub,2013-03-26 11:29:00,
2013-03-26 07:34:00,37.0,32.0,29.71,NW,324,3.0,7.0,82,0.00,,,0.00,meteohub,2013-03-26 11:34:00,
2013-03-26 07:39:00,37.0,32.0,29.72,NW,324,5.0,7.0,82,0.00,,,0.00,meteohub,2013-03-26 11:39:00,
2013-03-26 07:44:00,37.2,32.2,29.71,NW,324,4.0,7.0,82,0.00,,,0.00,meteohub,2013-03-26 11:44:00,
2013-03-26 07:49:00,37.2,32.2,29.72,NW,324,4.0,7.0,82,0.00,,,0.00,meteohub,2013-03-26 11:49:00,
2013-03-26 07:54:00,37.4,32.4,29.72,NW,324,5.0,7.0,82,0.00,,,0.00,meteohub,2013-03-26 11:54:00,
2013-03-26 07:59:00,37.6,32.4,29.72,NW,324,5.0,8.0,81,0.00,,,0.00,meteohub,2013-03-26 11:59:00,
2013-03-26 08:04:00,37.8,32.5,29.72,NW,324,5.0,8.0,81,0.00,,,0.00,meteohub,2013-03-26 12:04:00,
2013-03-26 08:06:00,37.8,32.2,29.73,NW,324,4.0,8.0,80,0.00,,,0.00,meteohub,2013-03-26 12:06:00,
2013-03-26 08:12:00,38.1,32.5,29.73,NW,324,5.0,8.0,80,0.00,,,0.00,meteohub,2013-03-26 12:12:00,
2013-03-26 08:17:00,38.5,32.5,29.73,NW,324,4.0,8.0,79,0.00,,,0.00,meteohub,2013-03-26 12:17:00,
2013-03-26 08:22:00,38.7,32.7,29.73,NW,324,6.0,8.0,79,0.00,,,0.00,meteohub,2013-03-26 12:22:00,
2013-03-26 08:27:00,38.7,32.4,29.73,NW,323,6.0,8.0,78,0.00,,,0.00,meteohub,2013-03-26 12:27:00,
2013-03-26 08:32:00,38.8,32.5,29.73,NW,321,7.0,8.0,78,0.00,,,0.00,meteohub,2013-03-26 12:32:00,
2013-03-26 08:37:00,39.0,32.4,29.73,NW,318,6.0,9.0,77,0.00,,,0.00,meteohub,2013-03-26 12:37:00,
2013-03-26 08:42:00,39.0,32.4,29.73,NW,313,4.0,9.0,77,0.00,,,0.00,meteohub,2013-03-26 12:42:00,
2013-03-26 08:47:00,39.4,32.7,29.73,NW,313,5.0,9.0,77,0.00,,,0.00,meteohub,2013-03-26 12:47:00,
2013-03-26 08:52:00,39.6,32.9,29.73,NW,313,7.0,9.0,77,0.00,,,0.00,meteohub,2013-03-26 12:52:00,
2013-03-26 08:57:00,39.6,32.9,29.73,NW,313,5.0,9.0,77,0.00,,,0.00,meteohub,2013-03-26 12:57:00,
2013-03-26 09:03:00,39.9,33.3,29.73,NW,313,3.0,9.0,77,0.00,,,0.00,meteohub,2013-03-26 13:03:00,
2013-03-26 09:08:00,40.1,33.1,29.73,NW,311,4.0,9.0,76,0.00,,,0.00,meteohub,2013-03-26 13:08:00,
2013-03-26 09:13:00,40.5,33.4,29.73,NW,311,6.0,9.0,76,0.00,,,0.00,meteohub,2013-03-26 13:13:00,
2013-03-26 09:19:00,40.6,33.6,29.73,NW,311,7.0,9.0,76,0.00,,,0.00,meteohub,2013-03-26 13:19:00,
2013-03-26 09:24:00,40.8,33.3,29.73,NW,306,10.0,10.0,74,0.00,,,0.00,meteohub,2013-03-26 13:24:00,
2013-03-26 09:29:00,40.8,33.3,29.73,NW,306,6.0,9.0,74,0.00,,,0.00,meteohub,2013-03-26 13:29:00,
2013-03-26 09:34:00,41.2,33.3,29.73,WNW,292,6.0,9.0,73,0.00,,,0.00,meteohub,2013-03-26 13:34:00,
2013-03-26 09:39:00,41.4,33.4,29.74,WNW,292,6.0,9.0,73,0.00,,,0.00,meteohub,2013-03-26 13:39:00,
2013-03-26 09:44:00,41.5,33.3,29.74,WNW,292,3.0,12.0,72,0.00,,,0.00,meteohub,2013-03-26 13:44:00,
2013-03-26 09:49:00,41.7,33.4,29.74,WNW,290,7.0,12.0,72,0.00,,,0.00,meteohub,2013-03-26 13:49:00,
2013-03-26 09:54:00,42.1,33.8,29.74,WNW,290,3.0,12.0,72,0.00,,,0.00,meteohub,2013-03-26 13:54:00,
2013-03-26 09:59:00,42.4,34.3,29.75,WNW,290,3.0,12.0,73,0.00,,,0.00,meteohub,2013-03-26 13:59:00,
2013-03-26 10:04:00,43.0,33.8,29.74,NW,306,5.0,12.0,70,0.00,,,0.00,meteohub,2013-03-26 14:04:00,
2013-03-26 10:09:00,43.2,33.6,29.74,NW,307,7.0,12.0,69,0.00,,,0.00,meteohub,2013-03-26 14:09:00,
2013-03-26 10:14:00,43.5,34.3,29.74,NW,308,6.0,12.0,70,0.00,,,0.00,meteohub,2013-03-26 14:14:00,
2013-03-26 10:19:00,43.9,34.3,29.75,NW,305,3.0,12.0,69,0.00,,,0.00,meteohub,2013-03-26 14:19:00,
2013-03-26 10:24:00,44.1,34.2,29.75,NW,315,9.0,12.0,68,0.00,,,0.00,meteohub,2013-03-26 14:24:00,
2013-03-26 10:29:00,44.2,34.0,29.74,NW,305,4.0,12.0,67,0.00,,,0.00,meteohub,2013-03-26 14:29:00,
2013-03-26 10:34:00,44.8,34.2,29.75,NW,309,10.0,12.0,66,0.00,,,0.00,meteohub,2013-03-26 14:34:00,
2013-03-26 10:39:00,44.8,32.2,29.75,WNW,282,8.0,12.0,61,0.00,,,0.00,meteohub,2013-03-26 14:39:00,
2013-03-26 10:44:00,45.0,32.4,29.75,West,279,10.0,12.0,61,0.00,,,0.00,meteohub,2013-03-26 14:44:00,
2013-03-26 10:49:00,45.1,31.6,29.74,WNW,284,8.0,15.0,59,0.00,,,0.00,meteohub,2013-03-26 14:49:00,
2013-03-26 10:54:00,45.1,31.6,29.74,West,278,16.0,16.0,59,0.00,,,0.00,meteohub,2013-03-26 14:54:00,
2013-03-26 10:59:00,45.3,31.8,29.74,West,275,12.0,15.0,59,0.00,,,0.00,meteohub,2013-03-26 14:59:00,
2013-03-26 11:04:00,45.5,31.1,29.74,West,261,9.0,15.0,57,0.00,,,0.00,meteohub,2013-03-26 15:04:00,
2013-03-26 11:09:00,46.0,31.3,29.75,WNW,290,7.0,15.0,56,0.00,,,0.00,meteohub,2013-03-26 15:09:00,
2013-03-26 11:14:00,46.4,31.6,29.74,West,277,17.0,17.0,56,0.00,,,0.00,meteohub,2013-03-26 15:14:00,
2013-03-26 11:19:00,46.6,31.3,29.74,West,279,11.0,15.0,55,0.00,,,0.00,meteohub,2013-03-26 15:19:00,
2013-03-26 11:24:00,47.5,32.5,29.74,WNW,290,10.0,19.0,56,0.00,,,0.00,meteohub,2013-03-26 15:24:00,
2013-03-26 11:29:00,47.5,30.2,29.74,WNW,302,11.0,19.0,51,0.00,,,0.00,meteohub,2013-03-26 15:29:00,
2013-03-26 11:34:00,47.7,31.3,29.74,WNW,290,10.0,19.0,53,0.00,,,0.00,meteohub,2013-03-26 15:34:00,
2013-03-26 11:39:00,47.8,30.6,29.74,WNW,287,6.0,19.0,51,0.00,,,0.00,meteohub,2013-03-26 15:39:00,
2013-03-26 11:44:00,47.8,30.6,29.75,West,276,10.0,19.0,51,0.00,,,0.00,meteohub,2013-03-26 15:44:00,
2013-03-26 11:49:00,47.5,30.2,29.75,West,274,5.0,19.0,51,0.00,,,0.00,meteohub,2013-03-26 15:49:00,
2013-03-26 11:54:00,47.8,31.1,29.75,West,277,11.0,15.0,52,0.00,,,0.00,meteohub,2013-03-26 15:54:00,
2013-03-26 11:59:00,48.0,31.6,29.74,NW,313,8.0,15.0,53,0.00,,,0.00,meteohub,2013-03-26 15:59:00,
2013-03-26 12:04:00,48.6,31.3,29.75,West,273,7.0,15.0,51,0.00,,,0.00,meteohub,2013-03-26 16:04:00,
2013-03-26 12:09:00,48.4,31.6,29.74,WNW,282,6.0,15.0,52,0.00,,,0.00,meteohub,2013-03-26 16:09:00,
2013-03-26 12:14:00,48.6,30.2,29.74,West,281,8.0,15.0,49,0.00,,,0.00,meteohub,2013-03-26 16:14:00,
2013-03-26 12:19:00,48.6,30.7,29.74,West,272,11.0,15.0,50,0.00,,,0.00,meteohub,2013-03-26 16:19:00,
2013-03-26 12:24:00,48.0,30.7,29.75,WNW,297,5.0,15.0,51,0.00,,,0.00,meteohub,2013-03-26 16:24:00,
2013-03-26 12:29:00,47.7,30.0,29.74,WNW,288,7.0,15.0,50,0.00,,,0.00,meteohub,2013-03-26 16:29:00,
2013-03-26 12:34:00,47.8,29.7,29.74,West,278,10.0,19.0,49,0.00,,,0.00,meteohub,2013-03-26 16:34:00,
2013-03-26 12:40:00,47.1,28.9,29.74,West,269,9.0,19.0,49,0.00,,,0.00,meteohub,2013-03-26 16:40:00,
2013-03-26 12:45:00,47.7,30.4,29.74,West,274,9.0,19.0,51,0.00,,,0.00,meteohub,2013-03-26 16:45:00,
2013-03-26 12:50:00,48.2,30.4,29.74,West,272,5.0,19.0,50,0.00,,,0.00,meteohub,2013-03-26 16:50:00,
2013-03-26 12:55:00,48.7,30.4,29.74,West,265,5.0,19.0,49,0.00,,,0.00,meteohub,2013-03-26 16:55:00,
2013-03-26 13:00:00,48.9,31.1,29.74,WNW,289,15.0,19.0,50,0.00,,,0.00,meteohub,2013-03-26 17:00:00,
2013-03-26 13:05:00,49.3,30.4,29.75,West,279,6.0,19.0,48,0.00,,,0.00,meteohub,2013-03-26 17:05:00,
2013-03-26 13:10:00,48.4,30.0,29.74,West,269,7.0,19.0,49,0.00,,,0.00,meteohub,2013-03-26 17:10:00,
2013-03-26 13:15:00,48.2,30.9,29.75,WNW,300,6.0,19.0,51,0.00,,,0.00,meteohub,2013-03-26 17:15:00,
2013-03-26 13:20:00,48.4,30.0,29.74,WNW,289,7.0,15.0,49,0.00,,,0.00,meteohub,2013-03-26 17:20:00,
2013-03-26 13:25:00,48.9,31.1,29.74,West,280,8.0,15.0,50,0.00,,,0.00,meteohub,2013-03-26 17:25:00,
2013-03-26 13:30:00,49.3,30.4,29.74,WNW,294,5.0,15.0,48,0.00,,,0.00,meteohub,2013-03-26 17:30:00,
2013-03-26 13:35:00,48.7,30.4,29.75,WNW,287,5.0,15.0,49,0.00,,,0.00,meteohub,2013-03-26 17:35:00,
2013-03-26 13:40:00,49.5,30.6,29.74,WNW,283,2.0,15.0,48,0.00,,,0.00,meteohub,2013-03-26 17:40:00,
2013-03-26 13:45:00,49.6,30.7,29.74,WNW,284,5.0,15.0,48,0.00,,,0.00,meteohub,2013-03-26 17:45:00,
2013-03-26 13:50:00,48.7,36.3,29.74,West,279,4.0,15.0,62,0.00,,,0.00,meteohub,2013-03-26 17:50:00,
2013-03-26 13:55:00,47.8,36.3,29.74,WSW,253,5.0,15.0,64,0.00,,,0.00,meteohub,2013-03-26 17:55:00,
2013-03-26 14:00:00,47.7,33.3,29.74,WSW,254,5.0,12.0,57,0.00,,,0.00,meteohub,2013-03-26 18:00:00,
2013-03-26 14:05:00,47.8,35.8,29.74,WSW,253,1.0,12.0,63,0.00,,,0.00,meteohub,2013-03-26 18:05:00,
2013-03-26 14:10:00,48.4,33.4,29.74,West,261,4.0,12.0,56,0.00,,,0.00,meteohub,2013-03-26 18:10:00,
2013-03-26 14:15:00,49.6,31.3,29.75,NW,315,4.0,12.0,49,0.00,,,0.00,meteohub,2013-03-26 18:15:00,
2013-03-26 14:20:00,50.2,32.7,29.74,WNW,284,6.0,12.0,51,0.00,,,0.00,meteohub,2013-03-26 18:20:00,
2013-03-26 14:25:00,48.7,36.0,29.74,West,260,2.0,12.0,61,0.00,,,0.00,meteohub,2013-03-26 18:25:00,
2013-03-26 14:30:00,48.7,38.3,29.75,West,273,4.0,12.0,67,0.00,,,0.00,meteohub,2013-03-26 18:30:00,
2013-03-26 14:35:00,49.5,33.1,29.75,West,273,9.0,10.0,53,0.00,,,0.00,meteohub,2013-03-26 18:35:00,
2013-03-26 14:41:00,50.2,30.2,29.74,West,273,4.0,10.0,46,0.00,,,0.00,meteohub,2013-03-26 18:41:00,
2013-03-26 14:46:00,50.5,30.6,29.74,WSW,250,4.0,10.0,46,0.00,,,0.00,meteohub,2013-03-26 18:46:00,
2013-03-26 14:51:00,50.7,30.7,29.74,West,281,12.0,12.0,46,0.00,,,0.00,meteohub,2013-03-26 18:51:00,
2013-03-26 14:56:00,50.2,30.2,29.75,WNW,288,11.0,11.0,46,0.00,,,0.00,meteohub,2013-03-26 18:56:00,
2013-03-26 15:01:00,49.6,29.1,29.75,West,277,5.0,10.0,45,0.00,,,0.00,meteohub,2013-03-26 19:01:00,
2013-03-26 15:06:00,49.8,29.3,29.75,WNW,294,9.0,16.0,45,0.00,,,0.00,meteohub,2013-03-26 19:06:00,
2013-03-26 15:11:00,50.2,29.1,29.75,WNW,286,5.0,16.0,44,0.00,,,0.00,meteohub,2013-03-26 19:11:00,
2013-03-26 15:16:00,50.2,29.7,29.75,West,273,11.0,16.0,45,0.00,,,0.00,meteohub,2013-03-26 19:16:00,
2013-03-26 15:21:00,49.8,28.8,29.75,West,274,14.0,16.0,44,0.00,,,0.00,meteohub,2013-03-26 19:21:00,
2013-03-26 15:26:00,49.8,29.3,29.75,NW,313,8.0,16.0,45,0.00,,,0.00,meteohub,2013-03-26 19:26:00,
2013-03-26 15:31:00,50.2,29.7,29.75,WNW,296,8.0,16.0,45,0.00,,,0.00,meteohub,2013-03-26 19:31:00,
2013-03-26 15:36:00,50.9,29.8,29.75,West,272,16.0,16.0,44,0.00,,,0.00,meteohub,2013-03-26 19:36:00,
2013-03-26 15:42:00,50.7,29.1,29.75,West,281,11.0,18.0,43,0.00,,,0.00,meteohub,2013-03-26 19:42:00,
2013-03-26 15:47:00,51.1,29.8,29.75,West,271,11.0,18.0,44,0.00,,,0.00,meteohub,2013-03-26 19:47:00,
2013-03-26 15:52:00,50.5,28.2,29.75,West,277,11.0,18.0,42,0.00,,,0.00,meteohub,2013-03-26 19:52:00,
2013-03-26 15:57:00,50.5,29.5,29.75,West,259,6.0,18.0,44,0.00,,,0.00,meteohub,2013-03-26 19:57:00,
2013-03-26 16:02:00,50.7,29.7,29.75,WNW,290,5.0,18.0,44,0.00,,,0.00,meteohub,2013-03-26 20:02:00,
2013-03-26 16:07:00,50.2,28.6,29.75,WNW,288,8.0,18.0,43,0.00,,,0.00,meteohub,2013-03-26 20:07:00,
2013-03-26 16:13:00,50.2,29.1,29.75,WNW,282,9.0,18.0,44,0.00,,,0.00,meteohub,2013-03-26 20:13:00,
2013-03-26 16:18:00,50.2,29.1,29.75,NW,312,8.0,15.0,44,0.00,,,0.00,meteohub,2013-03-26 20:18:00,
2013-03-26 16:23:00,49.8,28.2,29.75,NW,306,7.0,15.0,43,0.00,,,0.00,meteohub,2013-03-26 20:23:00,
2013-03-26 16:28:00,49.5,28.4,29.75,WNW,294,8.0,15.0,44,0.00,,,0.00,meteohub,2013-03-26 20:28:00,
2013-03-26 16:33:00,48.9,28.0,29.76,WNW,286,11.0,15.0,44,0.00,,,0.00,meteohub,2013-03-26 20:33:00,
2013-03-26 16:38:00,48.7,27.9,29.76,West,281,12.0,15.0,44,0.00,,,0.00,meteohub,2013-03-26 20:38:00,
2013-03-26 16:43:00,48.7,27.9,29.76,West,279,5.0,15.0,44,0.00,,,0.00,meteohub,2013-03-26 20:43:00,
2013-03-26 16:48:00,48.7,28.4,29.76,West,276,7.0,15.0,45,0.00,,,0.00,meteohub,2013-03-26 20:48:00,
2013-03-26 16:53:00,48.7,28.4,29.76,West,277,5.0,16.0,45,0.00,,,0.00,meteohub,2013-03-26 20:53:00,
2013-03-26 16:58:00,48.7,28.4,29.76,WNW,282,6.0,16.0,45,0.00,,,0.00,meteohub,2013-03-26 20:58:00,
2013-03-26 17:03:00,48.6,28.2,29.76,West,277,5.0,16.0,45,0.00,,,0.00,meteohub,2013-03-26 21:03:00,
2013-03-26 17:08:00,48.4,28.6,29.77,West,272,9.0,16.0,46,0.00,,,0.00,meteohub,2013-03-26 21:08:00,
2013-03-26 17:13:00,48.2,28.4,29.77,West,260,10.0,16.0,46,0.00,,,0.00,meteohub,2013-03-26 21:13:00,
2013-03-26 17:18:00,47.8,28.0,29.77,West,281,7.0,16.0,46,0.00,,,0.00,meteohub,2013-03-26 21:18:00,
2013-03-26 17:23:00,47.8,29.1,29.78,West,276,7.0,16.0,48,0.00,,,0.00,meteohub,2013-03-26 21:23:00,
2013-03-26 17:28:00,47.7,29.5,29.78,West,279,8.0,16.0,49,0.00,,,0.00,meteohub,2013-03-26 21:28:00,
2013-03-26 17:33:00,47.7,29.5,29.78,West,277,5.0,16.0,49,0.00,,,0.00,meteohub,2013-03-26 21:33:00,
2013-03-26 17:38:00,47.7,30.0,29.78,West,273,6.0,16.0,50,0.00,,,0.00,meteohub,2013-03-26 21:38:00,
2013-03-26 17:43:00,47.5,28.8,29.78,West,271,6.0,16.0,48,0.00,,,0.00,meteohub,2013-03-26 21:43:00,
2013-03-26 17:48:00,47.7,29.5,29.78,West,271,2.0,16.0,49,0.00,,,0.00,meteohub,2013-03-26 21:48:00,
2013-03-26 17:53:00,48.0,29.3,29.78,West,271,3.0,10.0,48,0.00,,,0.00,meteohub,2013-03-26 21:53:00,
2013-03-26 17:58:00,48.2,28.4,29.78,West,266,8.0,10.0,46,0.00,,,0.00,meteohub,2013-03-26 21:58:00,
2013-03-26 18:03:00,48.0,28.8,29.78,West,264,7.0,10.0,47,0.00,,,0.00,meteohub,2013-03-26 22:03:00,
2013-03-26 18:08:00,48.4,28.6,29.78,West,266,8.0,10.0,46,0.00,,,0.00,meteohub,2013-03-26 22:08:00,
2013-03-26 18:13:00,48.6,28.8,29.78,West,266,5.0,10.0,46,0.00,,,0.00,meteohub,2013-03-26 22:13:00,
2013-03-26 18:18:00,48.6,28.8,29.78,West,268,6.0,10.0,46,0.00,,,0.00,meteohub,2013-03-26 22:18:00,
2013-03-26 18:23:00,48.2,29.5,29.78,West,267,3.0,10.0,48,0.00,,,0.00,meteohub,2013-03-26 22:23:00,
2013-03-26 18:28:00,48.0,29.3,29.79,West,267,2.0,10.0,48,0.00,,,0.00,meteohub,2013-03-26 22:28:00,
2013-03-26 18:33:00,47.8,29.1,29.79,West,267,4.0,8.0,48,0.00,,,0.00,meteohub,2013-03-26 22:33:00,
2013-03-26 18:38:00,47.7,28.9,29.79,West,268,3.0,8.0,48,0.00,,,0.00,meteohub,2013-03-26 22:38:00,
2013-03-26 18:43:00,47.7,28.9,29.79,West,268,4.0,8.0,48,0.00,,,0.00,meteohub,2013-03-26 22:43:00,
2013-03-26 18:49:00,47.7,29.5,29.79,West,268,3.0,8.0,49,0.00,,,0.00,meteohub,2013-03-26 22:49:00,
2013-03-26 18:54:00,47.5,28.2,29.80,WNW,282,7.0,8.0,47,0.00,,,0.00,meteohub,2013-03-26 22:54:00,
2013-03-26 18:59:00,47.5,28.2,29.80,West,280,7.0,8.0,47,0.00,,,0.00,meteohub,2013-03-26 22:59:00,
2013-03-26 19:04:00,47.3,28.0,29.81,WNW,282,8.0,8.0,47,0.00,,,0.00,meteohub,2013-03-26 23:04:00,
2013-03-26 19:09:00,47.1,27.3,29.81,West,277,15.0,15.0,46,0.00,,,0.00,meteohub,2013-03-26 23:09:00,
2013-03-26 19:14:00,46.9,28.2,29.81,West,266,4.0,8.0,48,0.00,,,0.00,meteohub,2013-03-26 23:14:00,
2013-03-26 19:19:00,46.8,27.7,29.81,West,269,5.0,17.0,47,0.00,,,0.00,meteohub,2013-03-26 23:19:00,
2013-03-26 19:24:00,46.6,27.5,29.80,West,272,3.0,17.0,47,0.00,,,0.00,meteohub,2013-03-26 23:24:00,
2013-03-26 19:29:00,46.6,27.0,29.80,West,272,5.0,17.0,46,0.00,,,0.00,meteohub,2013-03-26 23:29:00,
2013-03-26 19:34:00,46.2,27.1,29.81,West,272,3.0,17.0,47,0.00,,,0.00,meteohub,2013-03-26 23:34:00,
2013-03-26 19:39:00,46.0,27.0,29.81,West,272,2.0,17.0,47,0.00,,,0.00,meteohub,2013-03-26 23:39:00,
2013-03-26 19:44:00,46.0,27.5,29.81,West,272,3.0,17.0,48,0.00,,,0.00,meteohub,2013-03-26 23:44:00,
2013-03-26 19:49:00,45.9,27.3,29.81,West,272,2.0,17.0,48,0.00,,,0.00,meteohub,2013-03-26 23:49:00,
2013-03-26 19:54:00,45.7,27.7,29.82,West,272,3.0,17.0,49,0.00,,,0.00,meteohub,2013-03-26 23:54:00,
2013-03-26 19:59:00,45.7,27.7,29.82,West,272,2.0,5.0,49,0.00,,,0.00,meteohub,2013-03-26 23:59:00,
2013-03-26 20:04:00,45.5,27.5,29.82,West,272,2.0,5.0,49,0.00,,,0.00,meteohub,2013-03-27 00:04:00,
2013-03-26 20:09:00,45.3,27.9,29.82,West,272,3.0,5.0,50,0.00,,,0.00,meteohub,2013-03-27 00:09:00,
2013-03-26 20:14:00,45.1,27.7,29.83,West,272,2.0,5.0,50,0.00,,,0.00,meteohub,2013-03-27 00:14:00,
2013-03-26 20:19:00,45.1,27.7,29.83,West,272,2.0,5.0,50,0.00,,,0.00,meteohub,2013-03-27 00:19:00,
2013-03-26 20:24:00,45.0,27.5,29.83,West,272,2.0,5.0,50,0.00,,,0.00,meteohub,2013-03-27 00:24:00,
2013-03-26 20:29:00,44.8,27.7,29.83,West,272,3.0,4.0,51,0.00,,,0.00,meteohub,2013-03-27 00:29:00,
2013-03-26 20:34:00,44.4,27.5,29.83,West,272,3.0,4.0,51,0.00,,,0.00,meteohub,2013-03-27 00:34:00,
2013-03-26 20:39:00,44.2,27.7,29.83,West,272,3.0,4.0,52,0.00,,,0.00,meteohub,2013-03-27 00:39:00,
2013-03-26 20:44:00,44.2,28.2,29.84,West,273,3.0,4.0,53,0.00,,,0.00,meteohub,2013-03-27 00:44:00,
2013-03-26 20:49:00,44.1,28.4,29.84,West,272,3.0,5.0,54,0.00,,,0.00,meteohub,2013-03-27 00:49:00,
2013-03-26 20:54:00,43.9,28.4,29.84,West,272,3.0,5.0,54,0.00,,,0.00,meteohub,2013-03-27 00:54:00,
2013-03-26 20:59:00,43.5,28.4,29.84,West,272,2.0,5.0,55,0.00,,,0.00,meteohub,2013-03-27 00:59:00,
2013-03-26 21:04:00,43.3,28.8,29.84,West,272,3.0,5.0,56,0.00,,,0.00,meteohub,2013-03-27 01:04:00,
2013-03-26 21:09:00,43.0,28.4,29.84,West,272,2.0,5.0,56,0.00,,,0.00,meteohub,2013-03-27 01:09:00,
2013-03-26 21:11:00,43.0,28.8,29.84,West,272,3.0,5.0,57,0.00,,,0.00,meteohub,2013-03-27 01:11:00,
2013-03-26 21:17:00,42.6,28.4,29.85,West,272,2.0,5.0,57,0.00,,,0.00,meteohub,2013-03-27 01:17:00,
2013-03-26 21:22:00,42.4,28.2,29.85,West,272,3.0,5.0,57,0.00,,,0.00,meteohub,2013-03-27 01:22:00,
2013-03-26 21:27:00,42.3,28.6,29.85,West,272,3.0,4.0,58,0.00,,,0.00,meteohub,2013-03-27 01:27:00,
2013-03-26 21:32:00,42.1,28.4,29.85,West,272,3.0,4.0,58,0.00,,,0.00,meteohub,2013-03-27 01:32:00,
2013-03-26 21:37:00,41.7,28.0,29.85,West,272,3.0,4.0,58,0.00,,,0.00,meteohub,2013-03-27 01:37:00,
2013-03-26 21:42:00,41.7,28.0,29.85,West,272,4.0,4.0,58,0.00,,,0.00,meteohub,2013-03-27 01:42:00,
2013-03-26 21:47:00,41.5,27.9,29.85,West,272,2.0,4.0,58,0.00,,,0.00,meteohub,2013-03-27 01:47:00,
2013-03-26 21:53:00,41.4,28.0,29.85,West,272,3.0,5.0,59,0.00,,,0.00,meteohub,2013-03-27 01:53:00,
2013-03-26 21:58:00,41.2,27.9,29.86,West,272,3.0,5.0,59,0.00,,,0.00,meteohub,2013-03-27 01:58:00,
2013-03-26 22:03:00,40.8,28.0,29.86,West,272,4.0,5.0,60,0.00,,,0.00,meteohub,2013-03-27 02:03:00,
2013-03-26 22:08:00,40.5,28.0,29.86,West,272,4.0,5.0,61,0.00,,,0.00,meteohub,2013-03-27 02:08:00,
2013-03-26 22:13:00,40.3,27.9,29.86,West,272,3.0,5.0,61,0.00,,,0.00,meteohub,2013-03-27 02:13:00,
2013-03-26 22:18:00,40.1,28.0,29.86,West,272,4.0,5.0,62,0.00,,,0.00,meteohub,2013-03-27 02:18:00,
2013-03-26 22:23:00,39.9,28.0,29.86,West,272,3.0,5.0,62,0.00,,,0.00,meteohub,2013-03-27 02:23:00,
2013-03-26 22:28:00,39.9,28.0,29.86,West,272,4.0,5.0,62,0.00,,,0.00,meteohub,2013-03-27 02:28:00,
2013-03-26 22:33:00,39.7,27.9,29.86,West,272,4.0,5.0,62,0.00,,,0.00,meteohub,2013-03-27 02:33:00,
2013-03-26 22:38:00,39.7,27.9,29.86,West,272,4.0,6.0,62,0.00,,,0.00,meteohub,2013-03-27 02:38:00,
2013-03-26 22:43:00,39.6,28.0,29.86,West,272,5.0,6.0,63,0.00,,,0.00,meteohub,2013-03-27 02:43:00,
2013-03-26 22:48:00,39.4,27.9,29.86,West,272,4.0,6.0,63,0.00,,,0.00,meteohub,2013-03-27 02:48:00,
2013-03-26 22:53:00,39.0,27.5,29.86,West,272,3.0,6.0,63,0.00,,,0.00,meteohub,2013-03-27 02:53:00,
2013-03-26 22:58:00,39.0,27.9,29.86,West,272,5.0,5.0,64,0.00,,,0.00,meteohub,2013-03-27 02:58:00,
2013-03-26 23:03:00,38.8,27.7,29.86,West,272,4.0,5.0,64,0.00,,,0.00,meteohub,2013-03-27 03:03:00,
2013-03-26 23:08:00,38.7,27.5,29.86,West,272,5.0,5.0,64,0.00,,,0.00,meteohub,2013-03-27 03:08:00,
2013-03-26 23:13:00,38.7,27.9,29.86,West,272,5.0,5.0,65,0.00,,,0.00,meteohub,2013-03-27 03:13:00,
2013-03-26 23:18:00,38.5,27.7,29.86,West,272,4.0,6.0,65,0.00,,,0.00,meteohub,2013-03-27 03:18:00,
2013-03-26 23:23:00,38.7,27.9,29.86,West,272,4.0,6.0,65,0.00,,,0.00,meteohub,2013-03-27 03:23:00,
2013-03-26 23:28:00,38.7,27.9,29.86,West,272,4.0,6.0,65,0.00,,,0.00,meteohub,2013-03-27 03:28:00,
2013-03-26 23:33:00,38.7,27.5,29.86,West,272,4.0,6.0,64,0.00,,,0.00,meteohub,2013-03-27 03:33:00,
2013-03-26 23:38:00,38.8,27.7,29.86,West,272,5.0,6.0,64,0.00,,,0.00,meteohub,2013-03-27 03:38:00,
2013-03-26 23:43:00,38.8,27.3,29.86,West,272,4.0,6.0,63,0.00,,,0.00,meteohub,2013-03-27 03:43:00,
2013-03-26 23:48:00,38.8,27.3,29.86,West,272,4.0,6.0,63,0.00,,,0.00,meteohub,2013-03-27 03:48:00,
2013-03-26 23:53:00,38.8,27.3,29.86,West,272,4.0,6.0,63,0.00,,,0.00,meteohub,2013-03-27 03:53:00,
2013-03-26 23:58:00,38.8,27.3,29.86,West,272,4.0,6.0,63,0.00,,,0.00,meteohub,2013-03-27 03:58:00,